Location: ??? ?????
(30.6482°N, 60.5850°E)
Time: 05:43:17
(UTC+00:00)

Cosmos 2026 Rocket - Pass Details

Date: 09 April 2020
Orbit: 940 x 1000 km, 82.9° (Epoch: 05 June)

Event Time Altitude Azimuth Distance (km) Brightness Sun altitude
Exits shadow 23:40:23 - 171° (S) 3,080 6.4 -24.4°
Reaches altitude 10° 23:41:29 10° 170° (S) 2,670 6.1 -24.2°
Maximum altitude 23:47:26 58° 92° (E) 1,090 4.5 -23.0°
Drops below altitude 10° 23:53:22 10° 15° (NNE) 2,660 6.8 -21.9°
Sets 23:55:53 0° 11° (NNE) 3,606 7.5 -21.4°
